Location: G�ppingen
(48.7089°N, 9.6563°E)
Time: 23:55:19
(UTC+02:00)

M-CUBED/EXP-1 PRIME - Pass Details

Date: 24 March 2019
Orbit: 430 x 671 km, 101.7° (Epoch: 22 April)

Event Time Altitude Azimuth Distance (km) Brightness Sun altitude
Rises 21:59:53 0° 8° (N) 2,934 ? -30.4°
Reaches altitude 10° 22:02:29 10° 352° (N) 2,053 ? -30.7°
Maximum altitude 22:05:47 21° 305° (NW) 1,492 ? -31.1°
Drops below altitude 10° 22:09:09 10° 257° (WSW) 2,095 ? -31.5°
Sets 22:11:51 0° 242° (WSW) 3,012 ? -31.8°
